Back to catalog

SL-8 DEB *

AliveLEO
NORAD 18510·DEBRIS·🇷🇺 Russia

Launched Jun 1, 1982 from Plesetsk Cosmodrome

Loading…

Next Passes (next 24 hours)

TLE

FreshSource: Space-Track

Epoch: Sep 14, 2026, 13:56 UTC

1 18510U 82051F   26257.58094589  .00001304  00000-0  26944-3 0  9997
2 18510  73.9888 195.6066 0013061 255.5699 279.6149 14.61391216102202

Track SL-8 DEB * in real time with AllMySat

Download on the App Store